Flag for Canada Weather past 2 weeks in Nanaimo, British Columbia, Canada

Now
67 °F

Mild.


Feels Like: 67 °F
Forecast: 60 / 86 °F
Wind: 6 mph from Southeast

Location: Entrance Island

Current Time: Jul 7, 2015 at 6:06:25 PM

Latest Report: Jul 7, 2015 at 5:00 PM


Visibility: N/A

Pressure: 29.91 "Hg

Humidity: 78%

Dew point: 60 °F

Location of NanaimoLocation

Historic Weather in Nanaimo — Graph

°F

Nanaimo temperature yesterday

Maximum temperature yesterday: 70 °F (at 12:00 AM)
Minimum temperature yesterday: 63 °F (at 6:00 AM)
Average temperature yesterday: 66 °F

Past Weeks' High & Low Weather Summary

 TemperatureHumidityPressure
High76 °F (Jun 27, 8:00 PM)89% (Jul 7, 5:00 AM)30.15 "Hg (Jul 7, 5:00 AM)
Low59 °F (Jun 23, 5:00 AM)38% (Jul 5, 8:00 PM)29.74 "Hg (Jul 4, 7:00 PM)
Average68 °F68%29.98 "Hg
* Reported Jun 22 4:00 PM — Jul 7 4:00 PM, Nanaimo, Weather by CustomWeather, © 2015

Note: Actual official high and low records may vary slightly from our data, if they occured in-between our weather recording intervals... More about our weather records

Advertising

Nanaimo weather history for previous 24 hours

 ConditionsComfort  
Time TempWeatherWind HumidityBarometerVisibility
4:00 PM
Tue, Jul 7
67 °FMild.7 mph78%29.93 "HgN/A
3:00 PM66 °FMild.6 mph78%29.95 "HgN/A
2:00 PM65 °FMild.8 mph78%29.97 "HgN/A
1:00 PM63 °FMild.10 mph81%29.98 "HgN/A
12:00 PM63 °FMild.9 mph81%30.01 "HgN/A
11:00 AM62 °FCool.12 mph81%30.02 "HgN/A
10:00 AM62 °FCool.12 mph83%30.02 "HgN/A
9:00 AM62 °FCool.10 mph83%30.03 "HgN/A
8:00 AM60 °FCool.8 mph89%30.03 "HgN/A
7:00 AM61 °FCool.3 mph85%30.02 "HgN/A
6:00 AM62 °FCool.1 mph83%30.01 "HgN/A
5:00 AM60 °FCool.2 mph89%30.00 "HgN/A
4:00 AM62 °FCool.2 mph83%29.99 "HgN/A
3:00 AM63 °FMild.2 mph82%29.98 "HgN/A
2:00 AM63 °FMild.3 mph81%29.97 "HgN/A
1:00 AM62 °FCool.3 mph84%29.96 "HgN/A
12:00 AM64 °FMild.3 mph83%29.95 "HgN/A
11:00 PM
Mon, Jul 6
65 °FMild.6 mph83%29.95 "HgN/A
10:00 PM64 °FMild.7 mph84%29.94 "HgN/A
9:00 PM66 °FMild.8 mph76%29.92 "HgN/A
8:00 PM67 °FMild.13 mph78%29.92 "HgN/A
7:00 PM67 °FMild.7 mph80%29.92 "HgN/A
6:00 PM68 °FMild.13 mph77%29.93 "HgN/A
Weather by CustomWeather, © 2015

See weather overviewHow to use our weather pages